Newport News, VA

1:37 PM EDT on March 29, 2017 (GMT -0400)
Newport News-Williamsburg International

Weather History for KPHF - October, 2012

Change the Weather History Date:

Monday, October 8, 2012

  Actual Average Record
Temperature  
Mean Temperature 52 °F -  
Max Temperature 55 °F 72 °F 90 °F (1962)
Min Temperature 50 °F 54 °F 3 °F (2003)
Degree Days  
Heating Degree Days 12    
Growing Degree Days 2 (Base 50)    
Moisture  
Dew Point 49 °F    
Average Humidity 85    
Maximum Humidity 94    
Minimum Humidity 72    
Precipitation  
Precipitation 0.67 in - - ()
Sea Level Pressure  
Sea Level Pressure 30.18 in    
Wind  
Wind Speed 7 mph (NNE)    
Max Wind Speed 13 mph    
Max Gust Speed 20 mph    
Visibility 7 miles    
Events Rain    
Averages and records for this station are not official NWS values.
T = Trace of Precipitation, MM = Missing Value Source: NWS Daily Summary

Daily Weather History Graph

Daily Weather History Graph

Search for Another Location

Airport or City:

Trip Planner

Search our weather history database for the weather conditions in past years. The results will help you decide how hot, cold, wet, or windy it might be!

Date:

Astronomy

Oct. 08, 2012 Rise Set
Actual Time 7:07 AM EDT 6:38 PM EDT
Civil Twilight 6:41 AM EDT 7:04 PM EDT
Nautical Twilight 6:11 AM EDT 7:34 PM EDT
Astronomical Twilight 5:41 AM EDT 8:04 PM EDT
Moon No Moon Rise 2:17 PM EDT (10/8)
Length of Visible Light 12h 22m
Length of Day
11h 30m
Waning Gibbous, 46% of the Moon is Illuminated
Oct 8
Waning Gibbous
Oct 15
New
Oct 21
First Quarter
Oct 29
Full
Nov 6
Last Quarter

Hourly Weather History & Observations

Time (EDT) Temp. Dew Point Humidity Pressure Visibility Wind Dir Wind Speed Gust Speed Precip Events Conditions
12:54 AM 52.0 °F 48.9 °F 89% 30.15 in 10.0 mi North 3.5 mph - N/A   Overcast
12:57 AM 51.8 °F 48.2 °F 88% 30.15 in 10.0 mi North 4.6 mph - N/A   Overcast
1:46 AM 51.8 °F 48.2 °F 88% 30.15 in 10.0 mi North 5.8 mph - N/A   Overcast
1:54 AM 52.0 °F 48.0 °F 86% 30.15 in 10.0 mi North 8.1 mph - N/A   Overcast
2:54 AM 52.0 °F 46.9 °F 83% 30.17 in 10.0 mi NNW 5.8 mph - N/A   Overcast
3:54 AM 52.0 °F 46.9 °F 83% 30.16 in 10.0 mi North 10.4 mph - N/A   Overcast
4:54 AM 51.1 °F 45.0 °F 80% 30.18 in 10.0 mi North 10.4 mph - N/A   Overcast
6:54 AM 50.0 °F 43.0 °F 77% 30.22 in 10.0 mi North 8.1 mph - N/A   Overcast
7:54 AM 50.0 °F 42.1 °F 74% 30.22 in 10.0 mi NNE 5.8 mph - N/A   Overcast
8:54 AM 51.1 °F 44.1 °F 77% 30.24 in 10.0 mi NNE 5.8 mph - N/A   Overcast
9:54 AM 52.0 °F 46.0 °F 80% 30.25 in 10.0 mi North 4.6 mph - N/A   Overcast
10:54 AM 55.0 °F 48.9 °F 80% 30.24 in 10.0 mi NNE 3.5 mph - N/A   Overcast
11:43 AM 55.4 °F 46.4 °F 72% 30.24 in 10.0 mi NE 9.2 mph - N/A   Overcast
11:54 AM 55.9 °F 46.9 °F 72% 30.24 in 10.0 mi NE 6.9 mph - N/A   Overcast
12:04 PM 55.4 °F 46.4 °F 72% 30.24 in 10.0 mi NE 5.8 mph - N/A   Overcast
12:32 PM 55.4 °F 46.4 °F 72% 30.23 in 10.0 mi NE 6.9 mph - N/A   Overcast
12:54 PM 54.0 °F 48.0 °F 80% 30.22 in 5.0 mi NNE 6.9 mph - 0.01 in Rain Light Rain
1:54 PM 54.0 °F 48.9 °F 83% 30.20 in 10.0 mi North 5.8 mph - 0.01 in   Overcast
2:19 PM 53.6 °F 50.0 °F 88% 30.17 in 3.0 mi NNE 8.1 mph - 0.02 in Rain Light Rain
2:54 PM 54.0 °F 50.0 °F 86% 30.17 in 8.0 mi NNE 6.9 mph - 0.02 in Rain Light Rain
3:14 PM 53.6 °F 50.0 °F 88% 30.18 in 6.0 mi North 8.1 mph - 0.01 in Rain Light Rain
3:29 PM 53.6 °F 50.0 °F 88% 30.19 in 1.8 mi North 9.2 mph - 0.05 in Rain Rain
3:54 PM 53.1 °F 50.0 °F 89% 30.17 in 3.0 mi NNE 10.4 mph 19.6 mph 0.12 in Rain Light Rain
4:04 PM 53.6 °F 50.0 °F 88% 30.17 in 3.0 mi NNE 6.9 mph - 0.02 in Rain Rain
4:21 PM 53.6 °F 50.0 °F 88% 30.16 in 2.0 mi NNE 8.1 mph - 0.06 in Rain Rain
4:23 PM 53.6 °F 50.0 °F 88% 30.16 in 1.8 mi NNE 9.2 mph - 0.07 in Rain Rain
4:30 PM 53.6 °F 50.0 °F 88% 30.18 in 2.0 mi North 6.9 mph - 0.08 in Rain Rain
4:37 PM 53.6 °F 50.0 °F 88% 30.15 in 2.0 mi NNE 9.2 mph 16.1 mph 0.10 in Rain Rain
4:44 PM 53.6 °F 50.0 °F 88% 30.16 in 1.8 mi NNE 9.2 mph 18.4 mph 0.13 in Rain Rain
4:54 PM 53.1 °F 50.0 °F 89% 30.16 in 1.8 mi North 12.7 mph - 0.17 in Rain Rain
5:03 PM 53.6 °F 50.0 °F 88% 30.17 in 2.5 mi North 8.1 mph - 0.02 in Rain Rain
5:11 PM 53.6 °F 50.0 °F 88% 30.17 in 2.5 mi North 10.4 mph - 0.04 in Rain Rain
5:54 PM 53.1 °F 50.0 °F 89% 30.15 in 2.5 mi North 9.2 mph - 0.16 in Rain Rain
6:32 PM 53.6 °F 50.0 °F 88% 30.16 in 2.5 mi NNE 6.9 mph - 0.15 in Rain Rain
6:54 PM 53.1 °F 51.1 °F 93% 30.16 in 5.0 mi NNE 5.8 mph - 0.17 in Rain Light Rain
7:31 PM 53.6 °F 51.8 °F 94% 30.15 in 10.0 mi NNE 6.9 mph - 0.01 in   Overcast
7:47 PM 53.6 °F 51.8 °F 94% 30.15 in 10.0 mi NNE 8.1 mph - 0.01 in   Overcast
7:54 PM 54.0 °F 51.1 °F 90% 30.15 in 10.0 mi NE 5.8 mph - 0.01 in   Overcast
8:54 PM 54.0 °F 51.1 °F 90% 30.15 in 10.0 mi NNE 6.9 mph - 0.00 in   Overcast
9:54 PM 55.0 °F 51.1 °F 86% 30.14 in 10.0 mi NNE 6.9 mph - N/A   Overcast
10:54 PM 55.9 °F 51.1 °F 84% 30.14 in 10.0 mi NNE 8.1 mph - N/A   Overcast
11:18 PM 55.4 °F 51.8 °F 88% 30.14 in 10.0 mi NNW 5.8 mph - N/A   Overcast
11:54 PM 55.0 °F 52.0 °F 89% 30.12 in 4.0 mi North 4.6 mph - N/A   Overcast